Location: ???? ????
(41.4149°N, 22.8816°E)
Time: 15:05:47
(UTC+00:00)

Cosmos 1980 Rocket - Pass Details

Date: 14 July 2020
Orbit: 828 x 851 km, 71.0° (Epoch: 04 August)

Event Time Altitude Azimuth Distance (km) Brightness Sun altitude
Rises 23:59:11 0° 345° (NNW) 3,427 6.2 -24.0°
Reaches altitude 10° 00:02:09 10° 360° (N) 2,486 5.5 -23.7°
Maximum altitude 00:06:42 24° 53° (NE) 1,698 4.4 -23.4°
Drops below altitude 10° 00:11:13 10° 106° (ESE) 2,469 4.7 -23.1°
Sets 00:14:08 0° 120° (ESE) 3,397 5.3 -22.8°
